QPF
0.10 0.07 0.09 0.06 0.03 0.03 0.03 0.02 0.03 0.02 0.02 0.01 0.01 0.01 0.01 0.01 0.01 0.01 0.01 0.00 0.00 0.01 0.01 0.01 0.01 0.00 0.01 0.01 0.01 0.01 0.01 0.01 0.01 0.02 0.02 0.02 0.03 0.05 0.04 0.05 0.04 0.02 0.04
0.06 0.06 0.08 0.06 0.05 0.04 0.03 0.03 0.04 0.01 0.01 0.00 0.01 0.01 0.01 0.01 0.01 0.01 0.01 0.01 0.00 0.01 0.01 0.01 0.00 0.00 0.00 0.01 0.01 0.01 0.01 0.01 0.01 0.02 0.04 0.04 0.04 0.04 0.04 0.05 0.04 0.03 0.05
0.03 0.03 0.04 0.05 0.06 0.04 0.02 0.02 0.02 0.01 0.00 0.00 0.01 0.01 0.01 0.01 0.00 0.00 0.01 0.01 0.00 0.00 0.01 0.01 0.01 0.00 0.00 0.01 0.01 0.01 0.01 0.02 0.02 0.04 0.05 0.03 0.03 0.04 0.03 0.03 0.02 0.03 0.05
0.01 0.01 0.02 0.02 0.03 0.02 0.02 0.02 0.02 0.01 0.01 0.00 0.00 0.00 0.01 0.00 0.00 0.00 0.00 0.01 0.01 0.01 0.01 0.01 0.01 0.00 0.00 0.00 0.01 0.01 0.01 0.02 0.02 0.04 0.02 0.03 0.03 0.05 0.03 0.02 0.02 0.03 0.04
0.01 0.01 0.02 0.01 0.01 0.01 0.01 0.01 0.01 0.01 0.01 0.01 0.01 0.01 0.00 0.00 0.00 0.00 0.00 0.01 0.01 0.00 0.00 0.00 0.01 0.01 0.00 0.00 0.00 0.01 0.01 0.02 0.03 0.02 0.02 0.03 0.04 0.06 0.04 0.01 0.01 0.02 0.03
0.01 0.01 0.01 0.01 0.01 0.01 0.01 0.01 0.01 0.00 0.01 0.01 0.00 0.00 0.00 0.00 0.00 0.00 0.00 0.01 0.01 0.00 0.00 0.00 0.00 0.01 0.00 0.00 0.01 0.01 0.01 0.02 0.02 0.01 0.02 0.02 0.04 0.07 0.04 0.02 0.02 0.02 0.02
0.01 0.01 0.01 0.01 0.01 0.01 0.01 0.01 0.01 0.00 0.01 0.01 0.00 0.00 0.00 0.00 0.00 0.00 0.00 0.00 0.00 0.00 0.00 0.00 0.00 0.00 0.00 0.00 0.01 0.01 0.02 0.02 0.02 0.02 0.02 0.03 0.05 0.08 0.06 0.03 0.02 0.02 0.01
0.01 0.00 0.01 0.01 0.01 0.00 0.00 0.00 0.01 0.00 0.01 0.01 0.01 0.00 0.00 0.00 0.00 0.01 0.01 0.00 0.00 0.00 0.00 0.00 0.00 0.00 0.00 0.01 0.01 0.01 0.02 0.02 0.02 0.03 0.04 0.05 0.08 0.09 0.07 0.04 0.03 0.02 0.01
0.00 0.01 0.01 0.00 0.00 0.01 0.01 0.01 0.01 0.01 0.01 0.01 0.01 0.01 0.00 0.00 0.00 0.01 0.01 0.00 0.00 0.00 0.00 0.00 0.00 0.01 0.01 0.01 0.01 0.02 0.02 0.03 0.03 0.03 0.04 0.07 0.10 0.08 0.07 0.05 0.03 0.03 0.02
0.01 0.01 0.01 0.00 0.00 0.00 0.01 0.01 0.01 0.01 0.01 0.01 0.01 0.00 0.00 0.00 0.00 0.01 0.01 0.01 0.00 0.01 0.00 0.00 0.00 0.00 0.01 0.01 0.02 0.02 0.03 0.03 0.03 0.03 0.04 0.06 0.10 0.10 0.08 0.06 0.03 0.03 0.03
0.01 0.01 0.01 0.01 0.01 0.01 0.00 0.00 0.00 0.00 0.00 0.00 0.00 0.00 0.00 0.00 0.00 0.00 0.00 0.01 0.01 0.01 0.01 0.01 0.01 0.01 0.01 0.01 0.01 0.02 0.02 0.02 0.02 0.03 0.05 0.07 0.10 0.11 0.08 0.05 0.04 0.04 0.04
0.02 0.02 0.02 0.02 0.01 0.00 0.00 0.00 0.00 0.00 0.00 0.00 0.00 0.00 0.00 0.00 0.00 0.00 0.00 0.01 0.01 0.01 0.01 0.01 0.02 0.02 0.01 0.00 0.00 0.01 0.02 0.03 0.03 0.04 0.06 0.08 0.09 0.10 0.09 0.06 0.04 0.04 0.04
0.01 0.03 0.02 0.01 0.00 0.00 0.00 0.00 0.00 0.00 0.00 0.00 0.00 0.00 0.00 0.00 0.00 0.00 0.00 0.00 0.00 0.00 0.00 0.00 0.01 0.01 0.01 0.00 0.01 0.01 0.01 0.03 0.03 0.04 0.05 0.08 0.08 0.09 0.09 0.07 0.05 0.04 0.04
0.00 0.00 0.00 0.00 0.00 0.00 0.00 0.00 0.00 0.00 0.00 0.00 0.00 0.00 0.00 0.00 0.00 0.00 0.00 0.00 0.00 0.00 0.00 0.00 0.00 0.00 0.00 0.00 0.00 0.01 0.02 0.03 0.03 0.03 0.04 0.07 0.08 0.09 0.08 0.07 0.07 0.05 0.04
0.00 0.00 0.00 0.00 0.00 0.00 0.00 0.00 0.00 0.00 0.00 0.00 0.00 0.00 0.00 0.00 0.00 0.00 0.00 0.00 0.00 0.00 0.00 0.00 0.00 0.00 0.00 0.01 0.01 0.01 0.01 0.02 0.01 0.03 0.04 0.06 0.08 0.08 0.08 0.07 0.08 0.05 0.05
0.00 0.00 0.00 0.00 0.00 0.00 0.00 0.00 0.00 0.00 0.00 0.00 0.00 0.00 0.00 0.00 0.00 0.00 0.00 0.00 0.00 0.00 0.00 0.00 0.00 0.00 0.00 0.00 0.01 0.01 0.01 0.01 0.01 0.02 0.03 0.04 0.06 0.06 0.06 0.08 0.10 0.07 0.05
0.00 0.00 0.00 0.00 0.00 0.00 0.00 0.00 0.00 0.00 0.00 0.00 0.00 0.00 0.00 0.00 0.00 0.00 0.00 0.00 0.00 0.00 0.00 0.00 0.00 0.00 0.00 0.00 0.00 0.00 0.01 0.01 0.01 0.02 0.04 0.04 0.04 0.04 0.05 0.07 0.09 0.09 0.07
0.00 0.00 0.00 0.00 0.00 0.00 0.00 0.00 0.00 0.00 0.00 0.00 0.00 0.00 0.00 0.00 0.00 0.00 0.00 0.00 0.00 0.00 0.00 0.00 0.00 0.00 0.00 0.00 0.00 0.00 0.01 0.01 0.01 0.01 0.02 0.03 0.03 0.03 0.05 0.07 0.07 0.08 0.09
0.00 0.00 0.00 0.00 0.00 0.00 0.00 0.00 0.00 0.00 0.00 0.00 0.00 0.00 0.00 0.00 0.00 0.00 0.00 0.00 0.00 0.00 0.00 0.00 0.00 0.00 0.00 0.00 0.00 0.00 0.01 0.01 0.01 0.01 0.02 0.03 0.04 0.05 0.05 0.06 0.05 0.05 0.07
0.00 0.00 0.00 0.00 0.00 0.00 0.00 0.00 0.00 0.00 0.00 0.00 0.00 0.00 0.00 0.00 0.00 0.00 0.00 0.00 0.00 0.00 0.00 0.00 0.00 0.00 0.00 0.00 0.00 0.00 0.01 0.01 0.01 0.01 0.01 0.03 0.04 0.06 0.06 0.06 0.04 0.04 0.05
0.00 0.00 0.00 0.00 0.00 0.00 0.00 0.00 0.00 0.00 0.00 0.00 0.00 0.00 0.00 0.00 0.00 0.00 0.00 0.00 0.00 0.00 0.00 0.00 0.00 0.00 0.00 0.00 0.00 0.00 0.00 0.01 0.01 0.01 0.01 0.02 0.05 0.09 0.11 0.10 0.07 0.05 0.04
0.01 0.01 0.00 0.00 0.00 0.00 0.00 0.00 0.00 0.00 0.00 0.00 0.00 0.00 0.00 0.00 0.00 0.00 0.00 0.00 0.00 0.00 0.00 0.00 0.00 0.00 0.00 0.00 0.01 0.01 0.01 0.01 0.01 0.01 0.02 0.02 0.04 0.11 0.15 0.14 0.12 0.07 0.05
0.00 0.00 0.00 0.00 0.00 0.00 0.00 0.00 0.00 0.00 0.00 0.00 0.00 0.00 0.00 0.00 0.00 0.00 0.00 0.00 0.00 0.00 0.00 0.00 0.00 0.00 0.00 0.01 0.01 0.01 0.01 0.00 0.00 0.01 0.02 0.04 0.05 0.11 0.15 0.16 0.14 0.11 0.07
0.00 0.00 0.00 0.00 0.00 0.00 0.00 0.00 0.00 0.00 0.00 0.00 0.00 0.00 0.00 0.00 0.00 0.00 0.00 0.00 0.00 0.00 0.00 0.00 0.00 0.00 0.00 0.01 0.01 0.00 0.01 0.01 0.00 0.01 0.02 0.03 0.05 0.09 0.13 0.16 0.13 0.11 0.08
0.00 0.00 0.00 0.00 0.00 0.00 0.00 0.00 0.00 0.00 0.00 0.00 0.00 0.00 0.00 0.00 0.00 0.00 0.00 0.00 0.00 0.00 0.00 0.00 0.00 0.00 0.00 0.01 0.01 0.00 0.01 0.01 0.01 0.01 0.01 0.02 0.04 0.06 0.09 0.14 0.13 0.12 0.10
0.00 0.00 0.00 0.00 0.00 0.00 0.00 0.00 0.00 0.00 0.00 0.00 0.00 0.00 0.00 0.00 0.00 0.00 0.00 0.00 0.00 0.00 0.00 0.00 0.00 0.00 0.00 0.00 0.01 0.01 0.02 0.01 0.01 0.00 0.00 0.01 0.02 0.04 0.06 0.09 0.10 0.10 0.11
MSLP
1014.15 1013.46 1012.91 1012.58 1012.48 1012.57 1012.76 1012.95 1013.05 1013.02 1012.86 1012.62 1012.38 1012.22 1012.20 1012.31 1012.53 1012.78 1012.98 1013.08 1013.06 1012.93 1012.74 1012.56 1012.44 1012.40 1012.44 1012.52 1012.58 1012.57 1012.46 1012.25 1011.97 1011.66 1011.38 1011.17 1011.06 1011.02 1011.02 1011.03 1011.00 1010.91 1010.77
1014.17 1013.54 1013.04 1012.75 1012.69 1012.79 1012.98 1013.15 1013.24 1013.19 1013.02 1012.78 1012.57 1012.45 1012.46 1012.61 1012.84 1013.09 1013.29 1013.37 1013.32 1013.17 1012.96 1012.76 1012.62 1012.57 1012.58 1012.62 1012.64 1012.57 1012.41 1012.15 1011.83 1011.50 1011.23 1011.04 1010.96 1010.95 1010.97 1010.97 1010.91 1010.76 1010.52
1014.10 1013.54 1013.11 1012.88 1012.86 1012.98 1013.18 1013.35 1013.42 1013.37 1013.21 1012.99 1012.81 1012.72 1012.75 1012.90 1013.12 1013.34 1013.50 1013.53 1013.45 1013.26 1013.04 1012.82 1012.68 1012.61 1012.60 1012.62 1012.59 1012.48 1012.28 1011.98 1011.65 1011.33 1011.08 1010.93 1010.89 1010.91 1010.95 1010.93 1010.81 1010.56 1010.20
1013.99 1013.51 1013.17 1013.01 1013.03 1013.18 1013.38 1013.55 1013.62 1013.57 1013.42 1013.23 1013.07 1012.99 1013.02 1013.15 1013.33 1013.50 1013.59 1013.57 1013.43 1013.21 1012.97 1012.76 1012.61 1012.55 1012.53 1012.53 1012.47 1012.34 1012.10 1011.80 1011.46 1011.16 1010.95 1010.85 1010.85 1010.90 1010.93 1010.88 1010.69 1010.33 1009.82
1013.88 1013.50 1013.24 1013.15 1013.22 1013.39 1013.60 1013.76 1013.82 1013.77 1013.63 1013.46 1013.31 1013.24 1013.26 1013.36 1013.48 1013.57 1013.59 1013.50 1013.31 1013.06 1012.81 1012.61 1012.48 1012.42 1012.42 1012.40 1012.34 1012.18 1011.94 1011.63 1011.30 1011.03 1010.86 1010.79 1010.82 1010.89 1010.91 1010.82 1010.54 1010.07 1009.42
1013.84 1013.54 1013.36 1013.33 1013.44 1013.63 1013.83 1013.97 1014.02 1013.96 1013.82 1013.66 1013.52 1013.45 1013.45 1013.51 1013.57 1013.59 1013.54 1013.38 1013.15 1012.89 1012.64 1012.45 1012.34 1012.30 1012.31 1012.29 1012.22 1012.05 1011.80 1011.49 1011.18 1010.93 1010.79 1010.75 1010.80 1010.87 1010.87 1010.73 1010.38 1009.81 1009.04
1013.89 1013.66 1013.55 1013.57 1013.70 1013.89 1014.06 1014.17 1014.19 1014.11 1013.97 1013.81 1013.68 1013.61 1013.60 1013.63 1013.64 1013.60 1013.49 1013.29 1013.03 1012.75 1012.51 1012.34 1012.25 1012.23 1012.25 1012.23 1012.15 1011.97 1011.71 1011.39 1011.09 1010.85 1010.72 1010.70 1010.75 1010.82 1010.80 1010.63 1010.23 1009.60 1008.76
1014.03 1013.85 1013.79 1013.85 1013.99 1014.15 1014.29 1014.35 1014.32 1014.22 1014.06 1013.91 1013.79 1013.73 1013.72 1013.73 1013.72 1013.64 1013.49 1013.26 1012.98 1012.70 1012.47 1012.31 1012.24 1012.23 1012.24 1012.21 1012.11 1011.92 1011.64 1011.32 1011.01 1010.77 1010.64 1010.62 1010.67 1010.73 1010.71 1010.52 1010.12 1009.48 1008.64
1014.23 1014.09 1014.06 1014.14 1014.27 1014.40 1014.48 1014.49 1014.41 1014.27 1014.11 1013.96 1013.87 1013.82 1013.83 1013.84 1013.82 1013.73 1013.56 1013.31 1013.03 1012.75 1012.53 1012.37 1012.30 1012.28 1012.27 1012.22 1012.09 1011.87 1011.57 1011.23 1010.91 1010.67 1010.53 1010.50 1010.55 1010.61 1010.59 1010.43 1010.07 1009.49 1008.73
1014.43 1014.33 1014.33 1014.41 1014.52 1014.61 1014.64 1014.59 1014.46 1014.29 1014.12 1013.99 1013.91 1013.90 1013.93 1013.96 1013.95 1013.86 1013.69 1013.44 1013.16 1012.88 1012.65 1012.49 1012.39 1012.34 1012.30 1012.21 1012.05 1011.80 1011.47 1011.12 1010.79 1010.53 1010.39 1010.35 1010.40 1010.47 1010.49 1010.39 1010.11 1009.63 1009.00
1014.59 1014.52 1014.54 1014.63 1014.73 1014.78 1014.76 1014.66 1014.49 1014.30 1014.13 1014.01 1013.96 1013.98 1014.04 1014.10 1014.10 1014.03 1013.87 1013.62 1013.34 1013.05 1012.81 1012.62 1012.49 1012.40 1012.30 1012.17 1011.97 1011.68 1011.34 1010.97 1010.63 1010.37 1010.22 1010.19 1010.24 1010.34 1010.40 1010.38 1010.21 1009.89 1009.42
1014.66 1014.64 1014.70 1014.80 1014.88 1014.91 1014.85 1014.72 1014.53 1014.33 1014.16 1014.06 1014.03 1014.08 1014.17 1014.25 1014.27 1014.21 1014.06 1013.82 1013.53 1013.24 1012.97 1012.74 1012.57 1012.42 1012.28 1012.09 1011.85 1011.54 1011.18 1010.81 1010.47 1010.22 1010.07 1010.04 1010.10 1010.23 1010.35 1010.41 1010.37 1010.20 1009.91
1014.64 1014.67 1014.77 1014.90 1014.99 1015.01 1014.94 1014.79 1014.59 1014.39 1014.23 1014.15 1014.15 1014.22 1014.32 1014.41 1014.44 1014.39 1014.25 1014.01 1013.73 1013.42 1013.13 1012.87 1012.64 1012.44 1012.23 1012.00 1011.72 1011.39 1011.03 1010.66 1010.33 1010.09 1009.95 1009.92 1010.00 1010.15 1010.31 1010.45 1010.52 1010.50 1010.38
1014.52 1014.62 1014.77 1014.93 1015.04 1015.07 1015.01 1014.87 1014.69 1014.51 1014.37 1014.31 1014.32 1014.39 1014.49 1014.58 1014.62 1014.57 1014.43 1014.21 1013.92 1013.61 1013.30 1013.01 1012.74 1012.48 1012.22 1011.94 1011.63 1011.28 1010.92 1010.56 1010.25 1010.02 1009.89 1009.86 1009.94 1010.10 1010.30 1010.49 1010.64 1010.73 1010.75
1014.35 1014.51 1014.71 1014.91 1015.05 1015.11 1015.08 1014.97 1014.83 1014.68 1014.57 1014.52 1014.54 1014.60 1014.69 1014.76 1014.78 1014.73 1014.60 1014.40 1014.13 1013.83 1013.51 1013.20 1012.89 1012.59 1012.29 1011.96 1011.62 1011.26 1010.90 1010.55 1010.25 1010.03 1009.90 1009.87 1009.93 1010.08 1010.28 1010.49 1010.69 1010.86 1010.97
1014.17 1014.37 1014.61 1014.84 1015.01 1015.10 1015.12 1015.07 1014.98 1014.88 1014.81 1014.78 1014.79 1014.83 1014.89 1014.93 1014.94 1014.89 1014.77 1014.59 1014.36 1014.08 1013.78 1013.47 1013.14 1012.81 1012.46 1012.11 1011.74 1011.36 1011.00 1010.66 1010.36 1010.13 1009.99 1009.94 1009.97 1010.08 1010.25 1010.45 1010.66 1010.86 1011.02
1014.04 1014.25 1014.49 1014.72 1014.91 1015.05 1015.12 1015.14 1015.12 1015.09 1015.06 1015.04 1015.04 1015.05 1015.07 1015.08 1015.07 1015.02 1014.92 1014.78 1014.60 1014.37 1014.11 1013.81 1013.49 1013.13 1012.76 1012.38 1011.98 1011.59 1011.22 1010.87 1010.58 1010.34 1010.17 1010.07 1010.05 1010.11 1010.22 1010.38 1010.57 1010.76 1010.95
1013.99 1014.16 1014.37 1014.58 1014.78 1014.95 1015.08 1015.17 1015.24 1015.27 1015.28 1015.28 1015.26 1015.24 1015.22 1015.18 1015.15 1015.10 1015.04 1014.95 1014.83 1014.67 1014.46 1014.21 1013.90 1013.54 1013.16 1012.75 1012.34 1011.93 1011.55 1011.20 1010.89 1010.63 1010.43 1010.28 1010.20 1010.18 1010.22 1010.32 1010.46 1010.63 1010.82
1014.06 1014.15 1014.29 1014.45 1014.63 1014.82 1015.00 1015.17 1015.31 1015.41 1015.47 1015.48 1015.44 1015.38 1015.30 1015.23 1015.16 1015.12 1015.09 1015.06 1015.02 1014.94 1014.80 1014.60 1014.33 1013.99 1013.60 1013.19 1012.77 1012.36 1011.98 1011.62 1011.31 1011.03 1010.78 1010.58 1010.43 1010.33 1010.29 1010.31 1010.39 1010.53 1010.70
1014.27 1014.25 1014.28 1014.37 1014.50 1014.69 1014.91 1015.15 1015.36 1015.52 1015.61 1015.62 1015.56 1015.46 1015.32 1015.20 1015.11 1015.06 1015.06 1015.09 1015.13 1015.13 1015.07 1014.93 1014.71 1014.40 1014.04 1013.64 1013.23 1012.83 1012.46 1012.12 1011.80 1011.51 1011.24 1010.98 1010.76 1010.58 1010.45 1010.39 1010.41 1010.50 1010.65
1014.63 1014.47 1014.38 1014.37 1014.45 1014.62 1014.87 1015.14 1015.41 1015.61 1015.73 1015.73 1015.64 1015.48 1015.28 1015.10 1014.98 1014.92 1014.95 1015.03 1015.13 1015.21 1015.23 1015.16 1015.00 1014.74 1014.42 1014.05 1013.68 1013.32 1012.98 1012.67 1012.37 1012.08 1011.79 1011.50 1011.21 1010.95 1010.73 1010.59 1010.53 1010.57 1010.70
1015.13 1014.84 1014.62 1014.50 1014.52 1014.66 1014.91 1015.21 1015.50 1015.73 1015.85 1015.84 1015.70 1015.48 1015.22 1014.98 1014.81 1014.74 1014.77 1014.89 1015.04 1015.18 1015.27 1015.27 1015.16 1014.96 1014.69 1014.39 1014.07 1013.77 1013.50 1013.24 1012.99 1012.72 1012.43 1012.11 1011.77 1011.44 1011.14 1010.91 1010.78 1010.75 1010.83
1015.75 1015.35 1015.02 1014.81 1014.75 1014.86 1015.09 1015.38 1015.68 1015.91 1016.02 1015.97 1015.78 1015.50 1015.17 1014.87 1014.65 1014.55 1014.58 1014.70 1014.88 1015.06 1015.19 1015.24 1015.19 1015.05 1014.85 1014.61 1014.38 1014.16 1013.97 1013.79 1013.60 1013.38 1013.10 1012.77 1012.40 1012.01 1011.64 1011.32 1011.10 1011.00 1011.02
1016.47 1015.98 1015.57 1015.28 1015.17 1015.22 1015.42 1015.70 1015.98 1016.19 1016.26 1016.17 1015.93 1015.58 1015.19 1014.84 1014.57 1014.43 1014.42 1014.53 1014.71 1014.90 1015.05 1015.12 1015.11 1015.02 1014.88 1014.72 1014.57 1014.45 1014.35 1014.26 1014.15 1013.98 1013.75 1013.42 1013.03 1012.59 1012.16 1011.76 1011.46 1011.27 1011.22
1017.22 1016.70 1016.24 1015.91 1015.74 1015.75 1015.90 1016.14 1016.38 1016.55 1016.58 1016.45 1016.16 1015.77 1015.33 1014.92 1014.60 1014.42 1014.37 1014.44 1014.59 1014.75 1014.89 1014.96 1014.96 1014.90 1014.80 1014.71 1014.63 1014.60 1014.59 1014.59 1014.56 1014.46 1014.27 1013.97 1013.57 1013.11 1012.63 1012.17 1011.79 1011.52 1011.38
1017.97 1017.46 1016.99 1016.63 1016.43 1016.39 1016.50 1016.68 1016.88 1017.00 1016.98 1016.81 1016.49 1016.06 1015.59 1015.15 1014.80 1014.56 1014.47 1014.48 1014.56 1014.67 1014.75 1014.79 1014.77 1014.71 1014.64 1014.58 1014.56 1014.59 1014.66 1014.73 1014.77 1014.73 1014.59 1014.32 1013.95 1013.48 1012.98 1012.49 1012.05 1011.71 1011.49
Thickness
5772 5775 5776 5776 5775 5775 5774 5774 5773 5773 5772 5771 5770 5769 5769 5768 5767 5766 5765 5764 5763 5763 5762 5761 5761 5760 5760 5760 5760 5760 5761 5762 5763 5764 5765 5766 5767 5768 5769 5770 5771 5771 5772
5774 5774 5774 5774 5773 5773 5772 5772 5771 5770 5769 5769 5768 5767 5766 5765 5764 5763 5762 5761 5761 5760 5759 5759 5758 5757 5757 5757 5757 5758 5759 5760 5760 5761 5763 5765 5766 5767 5768 5769 5769 5770 5771
5773 5773 5772 5772 5771 5770 5770 5769 5769 5768 5767 5766 5765 5764 5764 5763 5761 5760 5759 5759 5758 5757 5756 5755 5755 5755 5754 5754 5754 5755 5756 5757 5758 5759 5761 5763 5764 5765 5766 5767 5768 5769 5770
5772 5771 5770 5770 5769 5768 5768 5767 5766 5765 5764 5763 5762 5761 5761 5760 5759 5758 5757 5756 5755 5754 5753 5752 5752 5751 5751 5751 5751 5752 5753 5755 5756 5757 5759 5761 5762 5763 5764 5765 5767 5768 5768
5770 5769 5768 5767 5767 5766 5765 5764 5763 5763 5762 5761 5760 5759 5758 5757 5756 5755 5754 5753 5752 5751 5750 5749 5749 5748 5748 5748 5749 5749 5751 5752 5753 5754 5756 5758 5759 5761 5762 5763 5765 5766 5767
5768 5767 5766 5766 5765 5764 5763 5762 5761 5760 5759 5758 5758 5757 5756 5755 5754 5753 5751 5750 5749 5748 5747 5746 5746 5745 5745 5745 5746 5747 5748 5749 5751 5752 5753 5755 5756 5758 5760 5761 5763 5764 5766
5766 5765 5765 5764 5763 5762 5761 5760 5759 5758 5757 5756 5755 5754 5753 5752 5751 5750 5749 5747 5746 5745 5744 5743 5743 5742 5742 5742 5743 5744 5745 5746 5747 5749 5750 5752 5753 5755 5757 5758 5760 5762 5763
5765 5764 5763 5762 5761 5760 5759 5758 5757 5756 5755 5754 5753 5752 5751 5750 5749 5747 5746 5745 5743 5742 5742 5741 5740 5740 5739 5739 5740 5741 5742 5743 5744 5746 5747 5748 5751 5753 5754 5756 5757 5759 5761
5765 5763 5761 5760 5759 5758 5757 5756 5755 5754 5753 5752 5751 5750 5748 5747 5746 5745 5744 5742 5741 5740 5739 5739 5738 5737 5737 5737 5737 5738 5739 5740 5741 5742 5744 5745 5748 5750 5751 5753 5754 5756 5758
5762 5761 5759 5758 5757 5756 5755 5754 5753 5752 5751 5750 5749 5747 5746 5745 5744 5743 5741 5740 5739 5738 5737 5736 5736 5735 5735 5734 5735 5735 5736 5737 5738 5739 5740 5742 5744 5747 5748 5750 5751 5754 5756
5758 5758 5757 5756 5755 5754 5753 5752 5751 5750 5749 5747 5746 5745 5744 5742 5741 5740 5739 5738 5736 5735 5735 5734 5734 5733 5732 5732 5732 5733 5733 5734 5735 5736 5737 5739 5741 5743 5745 5747 5749 5751 5753
5753 5754 5755 5754 5753 5752 5751 5750 5749 5747 5746 5745 5744 5743 5742 5740 5739 5738 5737 5735 5734 5733 5732 5731 5731 5730 5729 5729 5729 5730 5731 5731 5732 5733 5734 5736 5738 5740 5742 5744 5746 5748 5750
5755 5755 5755 5754 5752 5751 5749 5748 5746 5745 5744 5743 5742 5741 5740 5738 5737 5735 5734 5732 5731 5729 5728 5728 5727 5726 5725 5725 5726 5726 5727 5728 5728 5729 5731 5733 5735 5737 5739 5741 5743 5746 5748
5753 5754 5755 5754 5751 5749 5748 5747 5745 5744 5742 5741 5740 5739 5738 5736 5734 5732 5730 5729 5727 5725 5724 5723 5722 5722 5722 5722 5722 5723 5723 5724 5725 5726 5728 5729 5731 5734 5736 5738 5740 5743 5745
5752 5752 5753 5753 5750 5748 5747 5745 5744 5742 5741 5739 5738 5736 5735 5733 5730 5729 5727 5725 5724 5722 5720 5719 5718 5718 5718 5718 5718 5719 5719 5721 5722 5723 5724 5726 5728 5730 5732 5735 5738 5740 5743
5750 5751 5751 5750 5749 5747 5745 5743 5742 5740 5738 5737 5735 5734 5733 5731 5728 5726 5724 5722 5720 5719 5717 5716 5715 5714 5713 5713 5714 5715 5715 5716 5717 5719 5720 5722 5724 5726 5729 5732 5735 5737 5740
5749 5750 5750 5749 5747 5746 5744 5742 5740 5738 5737 5735 5733 5731 5730 5728 5726 5723 5721 5719 5717 5716 5715 5714 5712 5711 5710 5709 5709 5710 5711 5712 5713 5714 5716 5718 5720 5723 5726 5729 5731 5734 5737
5749 5748 5749 5749 5746 5744 5742 5740 5738 5736 5735 5733 5731 5729 5728 5726 5724 5721 5719 5716 5715 5713 5712 5710 5708 5706 5704 5703 5704 5705 5706 5707 5709 5710 5712 5714 5717 5719 5723 5726 5728 5731 5734
5748 5747 5746 5746 5744 5742 5741 5739 5736 5734 5732 5730 5728 5727 5725 5724 5721 5719 5716 5714 5712 5710 5708 5706 5704 5701 5700 5699 5700 5701 5702 5703 5705 5707 5708 5711 5713 5716 5719 5722 5725 5728 5731
5747 5747 5745 5743 5742 5741 5738 5736 5734 5731 5729 5728 5726 5725 5723 5721 5719 5717 5714 5712 5710 5707 5704 5702 5700 5699 5697 5696 5697 5697 5698 5700 5701 5703 5705 5708 5710 5713 5716 5718 5721 5724 5728
5744 5744 5743 5740 5739 5738 5735 5731 5729 5726 5726 5725 5724 5723 5721 5719 5717 5715 5712 5709 5707 5703 5701 5699 5697 5695 5693 5693 5691 5689 5692 5696 5697 5699 5701 5703 5706 5709 5712 5715 5717 5720 5724
5741 5741 5740 5739 5737 5736 5734 5732 5729 5726 5724 5723 5722 5721 5719 5717 5715 5713 5710 5707 5704 5701 5699 5696 5694 5690 5689 5689 5685 5681 5679 5683 5690 5695 5697 5699 5702 5705 5708 5711 5713 5717 5720
5737 5738 5739 5737 5736 5735 5733 5730 5727 5724 5722 5720 5718 5717 5717 5715 5713 5711 5709 5706 5703 5700 5696 5694 5692 5688 5684 5684 5683 5678 5673 5671 5677 5686 5690 5694 5697 5700 5704 5707 5710 5713 5716
5735 5737 5736 5735 5734 5732 5731 5728 5724 5719 5715 5715 5715 5715 5714 5713 5712 5710 5708 5705 5702 5699 5696 5694 5691 5687 5684 5680 5680 5679 5677 5675 5672 5674 5682 5687 5691 5695 5698 5703 5706 5709 5712
5733 5733 5733 5732 5731 5730 5728 5725 5722 5718 5716 5715 5714 5713 5712 5711 5709 5708 5706 5703 5701 5698 5696 5693 5690 5687 5684 5680 5678 5676 5675 5673 5672 5670 5671 5678 5684 5689 5693 5697 5701 5705 5708
5729 5729 5729 5728 5727 5726 5725 5723 5721 5717 5715 5712 5711 5709 5708 5707 5706 5705 5704 5701 5699 5697 5695 5692 5690 5687 5684 5681 5678 5676 5673 5671 5670 5669 5668 5671 5675 5682 5689 5693 5697 5701 5704